Weather History for Newark, NJ

Change the Weather History Date:

Monday, October 1, 2012

  Actual Average Record
Temperature  
Mean Temperature 62 °F 62 °F  
Max Temperature 73 °F 71 °F 85 °F (1950)
Min Temperature 50 °F 53 °F 38 °F (1947)
Degree Days  
Heating Degree Days 3 4  
Month to date heating degree days 3 4  
Since 1 July heating degree days 23 49  
Cooling Degree Days 0 2  
Month to date cooling degree days 0 2  
Year to date cooling degree days 1431 1176  
Growing Degree Days 12 (Base 50)    
Moisture  
Dew Point 48 °F    
Average Humidity 65    
Maximum Humidity 89    
Minimum Humidity 41    
Precipitation  
Precipitation 0.00 in 0.12 in 2.36 in (2010)
Month to date precipitation 0.00 0.12  
Year to date precipitation 26.02 35.31  
Snow  
Snow 0.00 in 0.00 in 0.00 in (2002)
Month to date snowfall 0.0 0.0  
Since 1 July snowfall 0.0 0.0  
Snow Depth 0.00 in    
Sea Level Pressure  
Sea Level Pressure 29.89 in    
Wind  
Wind Speed 9 mph (WSW)    
Max Wind Speed 20 mph    
Max Gust Speed 28 mph    
Visibility 10 miles    
Events      
T = Trace of Precipitation, MM = Missing Value Source: NWS Daily Summary

Daily Weather History Graph

Daily Weather History Graph

Search for Another Location

Airport:

Trip Planner

Search our weather history database for the weather conditions in past years. The results will help you decide how hot, cold, wet, or windy it might be!

Date:

Astronomy

Oct. 01, 2012 Rise Set
Actual Time 6:53 AM EDT 6:37 PM EDT
Civil Twilight 6:26 AM EDT 7:05 PM EDT
Nautical Twilight 5:54 AM EDT 7:36 PM EDT
Astronomical Twilight 5:22 AM EDT 8:08 PM EDT
Moon 7:12 PM EDT (10/1) 8:21 AM EDT (10/1)
Length of Visible Light 12h 38m
Length of Day
11h 44m
Full, 98% of the Moon is Illuminated
Oct 1
Full
Oct 8
Last Quarter
Oct 15
New
Oct 21
First Quarter
Oct 29
Full

Hourly Weather History & Observations

Time (EDT) Temp. Dew Point Humidity Pressure Visibility Wind Dir Wind Speed Gust Speed Precip Events Conditions
12:51 AM 55.0 °F 46.9 °F 74% 29.84 in 10.0 mi WSW 6.9 mph - N/A   Clear
1:51 AM 53.1 °F 48.0 °F 83% 29.85 in 10.0 mi SW 8.1 mph - N/A   Clear
2:51 AM 53.1 °F 46.9 °F 80% 29.84 in 10.0 mi West 8.1 mph - N/A   Clear
3:51 AM 51.1 °F 46.0 °F 83% 29.84 in 10.0 mi SSW 5.8 mph - N/A   Clear
4:51 AM 51.1 °F 48.0 °F 89% 29.85 in 10.0 mi WSW 8.1 mph - N/A   Clear
5:51 AM 51.1 °F 48.0 °F 89% 29.85 in 10.0 mi WSW 11.5 mph - N/A   Clear
6:51 AM 51.1 °F 46.9 °F 86% 29.86 in 10.0 mi WSW 11.5 mph - N/A   Partly Cloudy
7:51 AM 53.1 °F 46.9 °F 80% 29.87 in 10.0 mi WSW 10.4 mph - N/A   Partly Cloudy
8:51 AM 57.0 °F 46.9 °F 69% 29.88 in 10.0 mi WSW 12.7 mph - N/A   Partly Cloudy
9:51 AM 62.1 °F 46.9 °F 58% 29.90 in 10.0 mi West 12.7 mph - N/A   Scattered Clouds
10:51 AM 64.9 °F 46.9 °F 52% 29.89 in 10.0 mi West 13.8 mph - N/A   Scattered Clouds
11:51 AM 68.0 °F 46.9 °F 47% 29.89 in 10.0 mi WNW 9.2 mph 21.9 mph N/A   Scattered Clouds
12:51 PM 69.1 °F 46.9 °F 45% 29.88 in 10.0 mi West 13.8 mph 19.6 mph N/A   Scattered Clouds
1:51 PM 72.0 °F 48.0 °F 43% 29.87 in 10.0 mi West 16.1 mph 21.9 mph N/A   Scattered Clouds
2:51 PM 73.0 °F 48.0 °F 41% 29.87 in 10.0 mi WNW 10.4 mph 19.6 mph N/A   Scattered Clouds
3:51 PM 72.0 °F 48.0 °F 43% 29.87 in 10.0 mi WSW 11.5 mph - N/A   Scattered Clouds
4:51 PM 71.1 °F 46.9 °F 42% 29.89 in 10.0 mi WSW 12.7 mph - N/A   Scattered Clouds
5:51 PM 69.8 °F 46.4 °F 43% 29.90 in 10.0 mi WSW 12.7 mph - N/A   Scattered Clouds
6:51 PM 68.0 °F 48.0 °F 49% 29.92 in 10.0 mi WSW 9.2 mph - N/A   Scattered Clouds
7:51 PM 68.0 °F 48.9 °F 50% 29.94 in 10.0 mi SW 9.2 mph - N/A   Mostly Cloudy
8:51 PM 66.0 °F 48.9 °F 54% 29.96 in 10.0 mi WSW 6.9 mph - N/A   Mostly Cloudy
9:51 PM 64.9 °F 48.9 °F 56% 29.97 in 10.0 mi WSW 4.6 mph - N/A   Mostly Cloudy
10:51 PM 64.0 °F 48.9 °F 58% 29.96 in 10.0 mi Calm Calm - N/A   Overcast
11:51 PM 64.0 °F 50.0 °F 60% 29.96 in 10.0 mi Calm Calm - N/A   Overcast